Retour au catalogue

ARIANE 42P+ DEB

ActifHEO
NORAD 34184·DEBRIS·🇫🇷 France

Lancé Oct 28, 1992 depuis Guiana Space Centre

Loading…

Prochains Passages (prochaines 24 heures)

TLE

FraisSource: Space-Track

Époque: Sep 14, 2026, 04:04 UTC

1 34184U 92072Q   26257.16970201  .00004820  00000-0  10693-2 0  9993
2 34184   7.1248 335.6462 6451341 166.7047 225.6391  3.38546158278624

Suivez ARIANE 42P+ DEB en temps réel avec AllMySat

Download on the App Store